Monroe, WI

8:19 PM CDT on April 25, 2017 (GMT -0500)
Monroe Municipal

Weather History for KEFT - August, 2013

Change the Weather History Date:

Monday, August 26, 2013

  Actual Average Record
Temperature  
Mean Temperature 80 °F -  
Max Temperature 91 °F 85 °F 95 °F (2003)
Min Temperature 69 °F 50 °F 15 °F (1998)
Cooling Degree Days 15    
Growing Degree Days 30 (Base 50)    
Moisture  
Dew Point 71 °F    
Average Humidity 77    
Maximum Humidity 100    
Minimum Humidity 50    
Precipitation  
Precipitation 0.00 in - - ()
Sea Level Pressure  
Sea Level Pressure 30.08 in    
Wind  
Wind Speed 13 mph (SW)    
Max Wind Speed 20 mph    
Max Gust Speed 23 mph    
Visibility 10 miles    
Events      
Averages and records for this station are not official NWS values.
T = Trace of Precipitation, MM = Missing Value Source: NWS Daily Summary

Daily Weather History Graph

Daily Weather History Graph

Search for Another Location

Airport or City:

Trip Planner

Search our weather history database for the weather conditions in past years. The results will help you decide how hot, cold, wet, or windy it might be!

Date:

Astronomy

Aug. 26, 2013 Rise Set
Actual Time 6:17 AM CDT 7:42 PM CDT
Civil Twilight 5:47 AM CDT 8:11 PM CDT
Nautical Twilight 5:12 AM CDT 8:46 PM CDT
Astronomical Twilight 4:34 AM CDT 9:24 PM CDT
Moon 10:43 PM CDT 12:27 PM CDT
Length of Visible Light 14h 23m
Length of Day
13h 25m
Waning Gibbous, 66% of the Moon is Illuminated
Aug 26
Waning Gibbous
Aug 28
Last Quarter
Sep 5
New
Sep 12
First Quarter
Sep 19
Full

Hourly Weather History & Observations

Time (CDT) Temp. Heat Index Dew Point Humidity Pressure Visibility Wind Dir Wind Speed Gust Speed Precip Events Conditions
12:15 AM 73.4 °F - 70.7 °F 91% 30.13 in 10.0 mi SSW 13.8 mph - N/A   Clear
12:35 AM 72.5 °F - 72.5 °F 100% 30.13 in 10.0 mi SSW 12.7 mph - N/A   Clear
12:55 AM 71.8 °F - 71.8 °F 100% 30.13 in 10.0 mi SSW 13.8 mph - N/A   Clear
1:15 AM 71.4 °F - 71.4 °F 100% 30.13 in 10.0 mi SSW 13.8 mph - N/A   Clear
1:35 AM 71.1 °F - 71.1 °F 100% 30.13 in 10.0 mi SSW 13.8 mph 19.6 mph N/A   Clear
1:55 AM 71.1 °F - 71.1 °F 100% 30.13 in 10.0 mi SSW 15.0 mph - N/A   Clear
2:15 AM 70.9 °F - 70.9 °F 100% 30.13 in 10.0 mi SSW 15.0 mph - N/A   Clear
2:35 AM 71.1 °F - 71.1 °F 100% 30.13 in 10.0 mi SSW 16.1 mph 20.7 mph N/A   Clear
2:55 AM 70.9 °F - 70.9 °F 100% 30.13 in 10.0 mi SSW 13.8 mph - N/A   Clear
3:15 AM 70.7 °F - 70.7 °F 100% 30.12 in 10.0 mi SSW 15.0 mph 20.7 mph N/A   Clear
3:35 AM 70.9 °F - 70.9 °F 100% 30.11 in 10.0 mi SSW 18.4 mph - N/A   Clear
3:55 AM 70.9 °F - 70.9 °F 100% 30.11 in 10.0 mi SW 18.4 mph - N/A   Clear
4:15 AM 70.7 °F - 70.7 °F 100% 30.12 in 10.0 mi SW 18.4 mph - N/A   Clear
4:35 AM 70.7 °F - 70.7 °F 100% 30.12 in 10.0 mi SW 17.3 mph - N/A   Clear
4:55 AM 70.3 °F - 70.3 °F 100% 30.12 in 10.0 mi SW 13.8 mph - N/A   Clear
5:15 AM 70.3 °F - 70.3 °F 100% 30.12 in 10.0 mi SW 15.0 mph - N/A   Clear
5:35 AM 69.8 °F - 69.8 °F 100% 30.12 in 10.0 mi SW 15.0 mph - N/A   Clear
5:55 AM 69.8 °F - 69.8 °F 100% 30.12 in 10.0 mi SW 13.8 mph - N/A   Clear
6:15 AM 69.8 °F - 69.8 °F 100% 30.12 in 10.0 mi SW 13.8 mph - N/A   Clear
6:35 AM 70.0 °F - 70.0 °F 100% 30.13 in 10.0 mi SW 12.7 mph - N/A   Clear
6:55 AM 70.5 °F - 70.5 °F 100% 30.13 in 10.0 mi SW 12.7 mph - N/A   Clear
7:15 AM 71.6 °F - 71.6 °F 100% 30.13 in 10.0 mi SW 12.7 mph - N/A   Clear
7:35 AM 72.5 °F - 69.1 °F 89% 30.13 in 10.0 mi SW 12.7 mph - N/A   Clear
7:55 AM 73.4 °F - 65.1 °F 75% 30.13 in 10.0 mi SW 13.8 mph - N/A   Clear
8:15 AM 73.2 °F - 68.7 °F 86% 30.13 in 10.0 mi SW 13.8 mph - N/A   Clear
8:35 AM 74.5 °F - 65.8 °F 74% 30.13 in 10.0 mi SW 11.5 mph - N/A   Clear
8:55 AM 75.2 °F - 66.4 °F 74% 30.13 in 10.0 mi SW 11.5 mph 18.4 mph N/A   Clear
9:15 AM 77.0 °F - 66.6 °F 70% 30.13 in 10.0 mi WSW 13.8 mph 18.4 mph N/A   Clear
9:35 AM 79.5 °F - 67.1 °F 66% 30.14 in 10.0 mi WSW 18.4 mph 23.0 mph N/A   Clear
9:55 AM 81.0 °F 83.4 °F 67.5 °F 63% 30.14 in 10.0 mi WSW 15.0 mph - N/A   Clear
10:15 AM 81.5 °F 84.2 °F 68.0 °F 63% 30.14 in 10.0 mi WSW 10.4 mph - N/A   Clear
10:35 AM 81.7 °F 84.5 °F 68.2 °F 63% 30.13 in 10.0 mi SW 11.5 mph - N/A   Clear
10:55 AM 83.1 °F 86.6 °F 68.7 °F 62% 30.13 in 10.0 mi WSW 11.5 mph - N/A   Clear
11:15 AM 84.2 °F 87.6 °F 68.5 °F 59% 30.13 in 10.0 mi WSW 12.7 mph - N/A   Clear
11:35 AM 85.6 °F 89.4 °F 68.9 °F 57% 30.13 in 10.0 mi SW 9.2 mph - N/A   Clear
11:55 AM 86.2 °F 90.4 °F 69.1 °F 57% 30.12 in 10.0 mi WSW 9.2 mph - N/A   Clear
12:15 PM 87.1 °F 90.6 °F 68.2 °F 53% 30.12 in 10.0 mi West 9.2 mph - N/A   Clear
12:35 PM 88.5 °F 92.7 °F 68.9 °F 52% 30.10 in 10.0 mi West 4.6 mph - N/A   Clear
12:55 PM 88.7 °F 93.5 °F 69.6 °F 53% 30.10 in 10.0 mi WSW 3.5 mph - N/A   Clear
1:15 PM 88.7 °F 94.3 °F 70.7 °F 55% 30.10 in 10.0 mi South 4.6 mph - N/A   Clear
1:35 PM 89.4 °F 95.3 °F 70.5 °F 54% 30.08 in 10.0 mi South 9.2 mph - N/A   Clear
1:55 PM 89.4 °F 94.8 °F 70.0 °F 53% 30.08 in 10.0 mi SSW 8.1 mph - N/A   Clear
2:15 PM 89.8 °F 95.1 °F 70.0 °F 52% 30.07 in 10.0 mi SSW 12.7 mph - N/A   Clear
2:35 PM 89.6 °F 95.2 °F 70.3 °F 53% 30.06 in 10.0 mi SSW 15.0 mph 18.4 mph N/A   Clear
2:55 PM 90.0 °F 95.9 °F 70.9 °F 53% 30.05 in 10.0 mi SW 13.8 mph 17.3 mph N/A   Clear
3:15 PM 90.0 °F 96.4 °F 71.2 °F 54% 30.04 in 10.0 mi SW 13.8 mph 19.6 mph N/A   Clear
3:35 PM 90.7 °F 96.9 °F 70.7 °F 52% 30.04 in 10.0 mi SW 16.1 mph 23.0 mph N/A   Clear
3:55 PM 91.8 °F 98.1 °F 70.7 °F 50% 30.03 in 10.0 mi SW 13.8 mph 21.9 mph N/A   Clear
4:15 PM 90.7 °F 97.4 °F 71.4 °F 53% 30.03 in 10.0 mi SW 16.1 mph - N/A   Clear
4:35 PM 90.9 °F 96.2 °F 69.8 °F 50% 30.03 in 10.0 mi SW 18.4 mph 23.0 mph N/A   Clear
4:55 PM 90.9 °F 96.7 °F 70.7 °F 51% 30.03 in 10.0 mi SW 19.6 mph - N/A   Clear
5:15 PM 90.7 °F 96.4 °F 70.3 °F 51% 30.02 in 10.0 mi SW 15.0 mph 20.7 mph N/A   Clear
5:35 PM 90.0 °F 95.4 °F 70.0 °F 52% 30.02 in 10.0 mi SSW 17.3 mph - N/A   Clear
5:55 PM 89.6 °F 95.2 °F 70.3 °F 53% 30.02 in 10.0 mi SSW 17.3 mph - N/A   Clear
6:15 PM 89.2 °F 94.1 °F 69.6 °F 52% 30.01 in 10.0 mi SSW 15.0 mph - N/A   Clear
6:35 PM 87.1 °F 92.0 °F 70.2 °F 57% 30.01 in 10.0 mi SSW 10.4 mph - N/A   Clear
6:55 PM 85.6 °F 90.8 °F 70.9 °F 61% 30.01 in 10.0 mi SSW 8.1 mph - N/A   Clear
7:15 PM 84.6 °F 89.7 °F 71.1 °F 64% 30.00 in 10.0 mi SSW 8.1 mph - N/A   Clear
7:35 PM 83.3 °F 87.9 °F 70.9 °F 66% 30.00 in 10.0 mi SSW 10.4 mph - N/A   Clear
7:55 PM 82.4 °F 86.7 °F 71.1 °F 68% 30.00 in 10.0 mi SSW 9.2 mph - N/A   Clear
8:15 PM 81.5 °F 85.5 °F 71.1 °F 70% 30.00 in 10.0 mi SSW 10.4 mph - N/A   Clear
8:35 PM 80.8 °F 84.6 °F 70.9 °F 72% 30.01 in 10.0 mi SSW 9.2 mph - N/A   Clear
8:55 PM 79.9 °F - 71.1 °F 74% 30.01 in 10.0 mi SSW 9.2 mph - N/A   Clear
9:15 PM 79.7 °F - 73.8 °F 82% 30.01 in 10.0 mi SSW 10.4 mph - N/A   Clear
9:35 PM 78.8 °F - 75.2 °F 89% 30.00 in 10.0 mi SSW 10.4 mph - N/A   Clear
9:55 PM 78.4 °F - 75.2 °F 90% 30.01 in 10.0 mi SSW 10.4 mph - N/A   Clear
10:15 PM 78.1 °F - 76.1 °F 94% 30.01 in 10.0 mi SSW 11.5 mph - N/A   Clear
10:35 PM 77.9 °F - 77.5 °F 99% 30.00 in 10.0 mi SSW 11.5 mph - N/A   Clear
10:55 PM 77.4 °F - 77.4 °F 100% 30.00 in 10.0 mi SSW 11.5 mph - N/A   Clear
11:15 PM 77.0 °F - 77.0 °F 100% 30.00 in 10.0 mi SSW 11.5 mph - N/A   Clear
11:35 PM 76.3 °F - 76.3 °F 100% 30.00 in 10.0 mi SSW 10.4 mph - N/A   Clear
11:55 PM 76.1 °F - 76.1 °F 100% 30.00 in 10.0 mi SSW 10.4 mph - N/A   Clear